This is the latest recevied weather packets stored in our database for station/object EA3CO-11. If no packets are shown the sender has not sent any weather packets the latest 10 day(s).
| Time | Temp. | Humidity | Pressure | Rain* | Wind** | Luminosity | Snow |
|---|---|---|---|---|---|---|---|
| 1777858367 | 15° C | 100% | 1016.2 hPa | - | - | - | - |
| 1777857467 | 14.44° C | 100% | 1016.1 hPa | - | - | - | - |
| 1777856567 | 14.44° C | 100% | 1016.2 hPa | - | - | - | - |
| 1777855667 | 14.44° C | 100% | 1016.4 hPa | - | - | - | - |
| 1777854767 | 15° C | 100% | 1016.5 hPa | - | - | - | - |
| 1777853866 | 15° C | 100% | 1016.6 hPa | - | - | - | - |
| 1777852966 | 15° C | 100% | 1016.5 hPa | - | - | - | - |
| 1777852066 | 15° C | 100% | 1016.8 hPa | - | - | - | - |
| 1777851166 | 15.56° C | 98% | 1016.8 hPa | - | - | - | - |
| 1777850266 | 15.56° C | 100% | 1017 hPa | - | - | - | - |
| 1777849366 | 15.56° C | 99% | 1016.9 hPa | - | - | - | - |
| 1777848466 | 15.56° C | 100% | 1017 hPa | - | - | - | - |
| 1777847566 | 15.56° C | 100% | 1017.2 hPa | - | - | - | - |
| 1777846666 | 16.11° C | 99% | 1017.1 hPa | - | - | - | - |
| 1777845765 | 15.56° C | 99% | 1017.1 hPa | - | - | - | - |
| 1777844865 | 15.56° C | 100% | 1017.1 hPa | - | - | - | - |
| 1777843965 | 15.56° C | 100% | 1017.3 hPa | - | - | - | - |
| 1777843065 | 15.56° C | 99% | 1017.4 hPa | - | - | - | - |
| 1777842165 | 15.56° C | 99% | 1017.3 hPa | - | - | - | - |
| 1777841265 | 15.56° C | 98% | 1017.4 hPa | - | - | - | - |
| 1777840365 | 16.11° C | 95% | 1017.5 hPa | - | - | - | - |
| 1777839465 | 15.56° C | 94% | 1017.5 hPa | - | - | - | - |
| 1777838565 | 16.11° C | 94% | 1017.3 hPa | - | - | - | - |
| 1777837664 | 16.11° C | 92% | 1017.4 hPa | - | - | - | - |
| 1777836764 | 16.11° C | 93% | 1017 hPa | - | - | - | - |
* Rain since midnight (hover to see other rain measurements)
** Current wind speed in m/s (hover to see current wind gust speed)